CYWG

Winnipeg International

Airport
ICAO code
CYWG
Summary
ICAO Region
NAM
ICAO Territory
Location

Winnipeg, Manitoba,

Coordinates
49° 54' 36" N , 97° 14' 24" W
KCC
Metar
Observation
CYWG 061500Z 18023G29KT 15SM FEW012 BKN140 OVC200 M04/M06 A2951 RMK SF1AC7CI1 SF TR SLP010
Station
Winnipeg Int. Airportman.
Date/Time
2023-02-06 15:00:00
Wind direction
180°
Wind speed
23 kts
Lowest cloud amount
few clouds
Temperature
-4°C
Dew point
-6°C
Humidity
85%
Weather condition
n/a

Description

International airport serving Winnipeg, Manitoba.

Climatology

Humid Continental climate (Köppen climate classification Dfb) - Variable weather patterns and a large seasonal temperature variance. Summers are often warm and humid with frequent thunderstorms and winters can be very cold with frequent snowfall and persistent snow cover.

Runways

Designator Length Width Surface Rops
7/25 1372 61 ASP Yes/Yes
13/31 2652 61 ASP Yes/Yes
18/36 3353 61 ASP Yes/Yes

Airport map

Aerial View

SKYbrary Partners:

Safety knowledge contributed by: